Buffalo, MN

5:50 AM CST on December 07, 2019 (GMT -0600)
Buffalo

Weather History for KCFE - October, 2019

Change the Weather History Date:

Saturday, October 19, 2019

  Actual Average (KMIC) Record (KMIC)
Temperature  
Mean Temperature 53 °F -  
Max Temperature 66 °F 54 °F 84 °F (2000)
Min Temperature 41 °F 35 °F 22 °F (1992)
Degree Days  
Heating Degree Days 12    
Growing Degree Days 3 (Base 50)    
Moisture  
Dew Point 39 °F    
Average Humidity 59    
Maximum Humidity 85    
Minimum Humidity 29    
Precipitation  
Precipitation 0.00 in - - ()
Sea Level Pressure  
Sea Level Pressure 29.67 in    
Wind  
Wind Speed - (North)    
Max Wind Speed -    
Max Gust Speed -    
Visibility 10 miles    
Events      
Averages and records for this station are not official NWS values.
T = Trace of Precipitation, MM = Missing Value Source: NWS Daily Summary

Daily Weather History Graph

Daily Weather History Graph

Search for Another Location

Airport or City:

Astronomy

Oct. 19, 2019 Rise Set
Actual Time 7:36 AM CDT 6:23 PM CDT
Civil Twilight 7:06 AM CDT 6:53 PM CDT
Nautical Twilight 6:32 AM CDT 7:27 PM CDT
Astronomical Twilight 5:58 AM CDT 8:01 PM CDT
Moon 10:21 PM CDT (10/19) 1:20 PM CDT (10/19)
Length of Visible Light 11h 47m
Length of Day
10h 47m
Waning Gibbous, 69% of the Moon is Illuminated
Oct 19
Waning Gibbous
Oct 21
Last Quarter
Oct 27
New
Nov 4
First Quarter
Nov 12
Full

Hourly Weather History & Observations

Time (CDT) Temp. Dew Point Humidity Pressure Visibility Wind Dir Wind Speed Gust Speed Precip Events Conditions
12:15 AM 59.0 °F 42.8 °F 55% 29.55 in 10.0 mi North - - N/A   Clear
12:16 AM 58.8 °F 42.8 °F 55% 29.55 in 10.0 mi North - - N/A   Clear
12:35 AM 58.1 °F 42.8 °F 57% 29.56 in 10.0 mi North - - N/A   Clear
12:55 AM 57.4 °F 42.8 °F 58% 29.56 in 10.0 mi North - - N/A   Clear
12:56 AM 57.4 °F 42.8 °F 58% 29.55 in 10.0 mi North - - N/A   Clear
1:15 AM 56.5 °F 43.2 °F 61% 29.55 in 10.0 mi North - - N/A   Clear
1:36 AM 55.8 °F 43.2 °F 63% 29.56 in 10.0 mi North - - N/A   Clear
1:55 AM 54.0 °F 43.3 °F 67% 29.58 in 10.0 mi North - - N/A   Clear
2:15 AM 53.1 °F 43.7 °F 71% 29.59 in 10.0 mi North - - N/A   Clear
2:35 AM 52.0 °F 43.7 °F 73% 29.60 in 10.0 mi North - - N/A   Clear
2:55 AM 52.0 °F 44.2 °F 75% 29.60 in 10.0 mi North - - N/A   Clear
2:56 AM 51.8 °F 44.1 °F 75% 29.60 in 10.0 mi North - - N/A   Clear
3:15 AM 51.8 °F 44.6 °F 76% 29.61 in 10.0 mi North - - N/A   Clear
3:35 AM 51.3 °F 45.1 °F 80% 29.61 in 10.0 mi North - - N/A   Clear
3:55 AM 50.4 °F 44.8 °F 81% 29.61 in 10.0 mi North - - N/A   Clear
3:56 AM 50.4 °F 44.8 °F 81% 29.61 in 10.0 mi North - - N/A   Clear
4:35 AM 49.1 °F 44.4 °F 84% 29.62 in 10.0 mi North - - N/A   Clear
4:55 AM 49.1 °F 44.6 °F 84% 29.63 in 10.0 mi North - - N/A   Clear
4:56 AM 49.1 °F 44.6 °F 84% 29.63 in 10.0 mi North - - N/A   Clear
5:16 AM 48.6 °F 44.2 °F 85% 29.63 in 10.0 mi North - - N/A   Scattered Clouds
5:35 AM 48.7 °F 44.2 °F 84% 29.65 in 10.0 mi North - - N/A   Mostly Cloudy
5:55 AM 49.1 °F 44.2 °F 83% 29.65 in 10.0 mi North - - N/A   Overcast
6:15 AM 49.1 °F 44.2 °F 83% 29.65 in 10.0 mi North - - N/A   Overcast
6:16 AM 49.1 °F 44.1 °F 83% 29.65 in 10.0 mi North - - N/A   Overcast
6:35 AM 48.7 °F 43.7 °F 83% 29.65 in 10.0 mi North - - N/A   Overcast
6:55 AM 48.6 °F 43.7 °F 83% 29.66 in 10.0 mi North - - N/A   Overcast
6:56 AM 48.6 °F 43.7 °F 83% 29.66 in 10.0 mi North - - N/A   Overcast
7:15 AM 49.1 °F 43.2 °F 80% 29.64 in 10.0 mi North - - N/A   Light Drizzle
7:35 AM 48.6 °F 43.2 °F 82% 29.65 in 10.0 mi North - - N/A   Overcast
7:55 AM 48.7 °F 43.0 °F 80% 29.66 in 10.0 mi North - - N/A   Overcast
8:15 AM 48.7 °F 43.0 °F 80% 29.67 in 10.0 mi North - - N/A   Overcast
8:35 AM 48.7 °F 42.8 °F 80% 29.68 in 10.0 mi North - - N/A   Mostly Cloudy
8:55 AM 48.7 °F 42.8 °F 80% 29.69 in 10.0 mi North - - N/A   Scattered Clouds
8:56 AM 48.7 °F 42.8 °F 80% 29.69 in 10.0 mi North - - N/A   Scattered Clouds
9:15 AM 49.1 °F 42.8 °F 79% 29.69 in 10.0 mi North - - N/A   Clear
9:35 AM 49.1 °F 43.2 °F 80% 29.69 in 10.0 mi North - - N/A   Clear
9:55 AM 49.1 °F 43.0 °F 79% 29.69 in 10.0 mi North - - N/A   Clear
10:15 AM 50.0 °F 43.5 °F 78% 29.69 in 10.0 mi North - - N/A   Clear
10:35 AM 52.5 °F 43.5 °F 71% 29.69 in 10.0 mi North - - N/A   Clear
10:55 AM 55.2 °F 43.5 °F 65% 29.69 in 10.0 mi North - - N/A   Clear
10:56 AM 55.4 °F 43.3 °F 64% 29.69 in 10.0 mi North - - N/A   Clear
11:15 AM 56.5 °F 42.4 °F 59% 29.69 in 10.0 mi North - - N/A   Clear
11:35 AM 57.7 °F 41.5 °F 55% 29.69 in 10.0 mi North - - N/A   Clear
11:55 AM 60.1 °F 42.1 °F 51% 29.69 in 10.0 mi North - - N/A   Clear
12:15 PM 60.4 °F 41.0 °F 49% 29.69 in 10.0 mi North - - N/A   Clear
12:35 PM 62.1 °F 40.6 °F 45% 29.69 in 10.0 mi North - - N/A   Clear
12:55 PM 63.0 °F 39.2 °F 42% 29.69 in 10.0 mi North - - N/A   Clear
1:15 PM 63.5 °F 38.3 °F 39% 29.68 in 10.0 mi North - - N/A   Clear
1:35 PM 63.9 °F 37.0 °F 37% 29.67 in 10.0 mi North - - N/A   Clear
1:55 PM 64.4 °F 36.5 °F 36% 29.67 in 10.0 mi North - - N/A   Clear
1:56 PM 64.6 °F 36.5 °F 35% 29.67 in 10.0 mi North - - N/A   Clear
2:15 PM 65.5 °F 35.2 °F 33% 29.66 in 10.0 mi North - - N/A   Clear
2:16 PM 65.5 °F 35.1 °F 32% 29.66 in 10.0 mi North - - N/A   Clear
2:35 PM 65.7 °F 34.2 °F 31% 29.66 in 10.0 mi North - - N/A   Clear
2:55 PM 65.5 °F 33.3 °F 30% 29.66 in 10.0 mi North - - N/A   Clear
3:15 PM 65.8 °F 33.3 °F 30% 29.66 in 10.0 mi North - - N/A   Clear
3:35 PM 65.5 °F 32.7 °F 30% 29.66 in 10.0 mi North - - N/A   Clear
3:55 PM 65.5 °F 32.7 °F 30% 29.66 in 10.0 mi North - - N/A   Clear
3:56 PM 65.5 °F 32.7 °F 30% 29.66 in 10.0 mi North - - N/A   Clear
4:15 PM 64.9 °F 32.2 °F 29% 29.66 in 10.0 mi North - - N/A   Clear
4:36 PM 64.4 °F 32.4 °F 30% 29.66 in 10.0 mi North - - N/A   Clear
4:55 PM 63.7 °F 31.1 °F 29% 29.66 in 10.0 mi North - - N/A   Clear
5:15 PM 62.8 °F 32.0 °F 32% 29.67 in 10.0 mi North - - N/A   Clear
5:35 PM 62.1 °F 31.8 °F 32% 29.67 in 10.0 mi North - - N/A   Clear
5:36 PM 62.1 °F 32.0 °F 32% 29.67 in 10.0 mi North - - N/A   Clear
5:55 PM 60.3 °F 32.0 °F 34% 29.68 in 10.0 mi North - - N/A   Clear
6:15 PM 58.8 °F 32.2 °F 37% 29.68 in 10.0 mi North - - N/A   Clear
6:35 PM 57.2 °F 32.0 °F 38% 29.69 in 10.0 mi North - - N/A   Clear
6:36 PM 57.2 °F 32.0 °F 38% 29.69 in 10.0 mi North - - N/A   Clear
6:55 PM 55.6 °F 32.2 °F 41% 29.69 in 10.0 mi North - - N/A   Clear
7:15 PM 53.6 °F 32.7 °F 45% 29.70 in 10.0 mi North - - N/A   Clear
7:16 PM 53.8 °F 32.7 °F 45% 29.70 in 10.0 mi North - - N/A   Clear
7:55 PM 53.2 °F 33.4 °F 47% 29.72 in 10.0 mi North - - N/A   Clear
8:15 PM 51.4 °F 34.3 °F 52% 29.72 in 10.0 mi North - - N/A   Clear
8:35 PM 51.4 °F 33.3 °F 50% 29.72 in 10.0 mi North - - N/A   Clear
8:36 PM 51.4 °F 33.4 °F 50% 29.72 in 10.0 mi North - - N/A   Clear
8:55 PM 51.3 °F 32.9 °F 50% 29.73 in 10.0 mi North - - N/A   Clear
8:56 PM 51.1 °F 32.9 °F 50% 29.73 in 10.0 mi North - - N/A   Clear
9:15 PM 49.6 °F 32.7 °F 52% 29.73 in 10.0 mi North - - N/A   Clear
9:35 PM 48.9 °F 32.0 °F 52% 29.73 in 10.0 mi North - - N/A   Clear
9:36 PM 48.9 °F 32.0 °F 52% 29.73 in 10.0 mi North - - N/A   Clear
9:55 PM 47.8 °F 32.7 °F 56% 29.74 in 10.0 mi North - - N/A   Clear
9:56 PM 47.7 °F 32.9 °F 57% 29.74 in 10.0 mi North - - N/A   Clear
10:15 PM 45.5 °F 33.3 °F 62% 29.74 in 10.0 mi North - - N/A   Clear
10:36 PM 44.4 °F 35.1 °F 70% 29.74 in 10.0 mi North - - N/A   Clear
10:55 PM 43.2 °F 34.2 °F 71% 29.74 in 10.0 mi North - - N/A   Clear
11:15 PM 42.8 °F 33.8 °F 70% 29.74 in 10.0 mi North - - N/A   Clear
11:16 PM 42.8 °F 33.8 °F 70% 29.74 in 10.0 mi North - - N/A   Clear
11:35 PM 41.7 °F 33.8 °F 73% 29.74 in 10.0 mi North - - N/A   Clear
11:55 PM 41.0 °F 34.0 °F 76% 29.75 in 10.0 mi North - - N/A   Clear